Vorticity
nan nan nan nan nan nan nan nan nan nan nan nan nan nan nan nan nan nan nan nan nan nan nan nan nan nan nan nan nan nan nan nan nan nan nan nan nan nan
nan 7 7 9 9 10 10 9 9 9 9 9 8 7 8 6 7 9 8 10 13 10 8 9 11 9 8 10 9 10 12 11 13 13 12 13 11 nan
nan 6 8 10 10 8 10 8 9 9 9 6 7 7 8 7 10 10 12 16 11 7 4 6 10 10 10 10 9 10 8 11 15 14 17 14 14 nan
nan 9 10 9 8 11 10 9 8 8 8 9 8 10 9 10 9 10 12 11 8 3 5 8 11 11 8 11 13 12 11 10 12 13 12 14 12 nan
nan 9 9 8 11 12 8 7 8 10 10 10 9 10 11 10 12 13 9 10 5 6 13 11 11 14 11 10 12 13 13 10 9 11 12 12 12 nan
nan 9 10 10 7 5 8 10 10 9 10 10 11 9 8 10 12 10 9 9 8 13 15 13 13 17 17 13 14 13 12 11 13 9 13 12 9 nan
nan 10 11 5 5 9 10 5 5 9 11 11 10 8 7 9 10 10 9 9 10 13 13 14 16 17 15 15 12 10 10 8 11 11 11 10 10 nan
nan 11 10 13 10 8 6 6 12 10 7 9 7 7 9 11 9 8 9 10 12 11 7 10 12 11 12 8 3 10 11 8 7 13 13 12 11 nan
nan 10 11 8 10 11 8 16 18 8 10 12 10 10 12 12 7 10 10 10 10 7 11 11 13 10 9 7 4 4 8 12 14 18 11 11 15 nan
nan 9 9 6 4 3 15 18 11 12 13 8 6 8 6 3 7 11 12 13 13 11 11 11 10 9 10 8 10 9 16 14 11 6 10 12 10 nan
nan 10 4 4 -0 8 16 12 11 10 6 7 12 7 9 13 13 16 13 11 11 10 13 12 7 11 12 12 18 14 13 12 9 11 15 12 9 nan
nan 7 6 2 4 16 14 14 12 8 12 18 16 15 17 15 16 16 11 10 10 11 9 9 10 11 13 15 11 17 18 11 12 17 15 17 16 nan
nan 12 6 -2 9 11 19 16 3 9 17 15 12 13 13 14 17 11 9 10 10 9 6 8 12 11 10 12 11 13 10 11 17 16 18 19 30 nan
nan 6 -4 2 12 18 13 4 11 24 21 11 11 10 11 11 10 10 12 12 11 9 12 14 12 12 13 12 10 9 9 14 12 14 16 16 23 nan
nan 2 7 16 16 14 6 14 26 22 10 11 10 11 11 10 11 12 13 13 13 17 16 14 14 17 15 10 8 6 12 14 12 13 12 15 16 nan
nan 15 12 14 14 15 18 18 16 9 10 12 11 11 11 11 12 12 12 13 16 19 15 11 9 10 11 10 9 12 14 10 11 12 12 12 12 nan
nan 18 12 12 13 13 12 11 10 10 12 11 11 11 11 11 11 12 11 12 14 11 11 13 13 16 13 8 9 14 15 12 11 13 13 11 11 nan
nan 12 10 10 10 10 10 11 9 11 12 11 11 11 11 11 10 11 12 12 11 10 11 11 13 18 18 11 7 14 14 11 11 15 14 10 10 nan
nan 10 10 10 10 11 11 11 11 12 12 12 11 11 11 8 10 13 12 10 10 12 12 12 12 12 12 13 4 12 23 12 11 11 13 12 12 nan
nan 10 10 10 11 11 11 11 11 11 11 11 11 12 11 11 11 12 12 10 10 13 14 12 10 12 11 9 12 5 13 24 14 9 9 11 9 nan
nan 10 11 11 11 11 11 11 11 10 11 13 12 11 11 11 12 12 7 7 17 16 12 11 7 14 18 13 11 9 1 10 20 19 15 12 8 nan
nan 10 11 11 11 11 11 11 11 11 12 11 11 12 12 12 11 11 12 13 12 14 14 10 12 12 12 13 11 10 12 5 3 10 17 24 21 nan
nan nan nan nan nan nan nan nan nan nan nan nan nan nan nan nan nan nan nan nan nan nan nan nan nan nan nan nan nan nan nan nan nan nan nan nan nan nan
CAPE
0 0 0 0 0 0 0 0 0 0 0 0 0 0 0 0 8 10 0 11 35 32 48 55 45 56 45 55 62 60 58 57 42 52 70 62 83 103
0 0 0 0 0 0 0 0 0 0 0 0 0 0 0 1 0 3 0 15 32 52 40 44 54 74 76 83 92 74 98 87 66 41 67 83 88 171
0 0 0 0 0 0 0 0 0 0 1 0 0 0 0 0 0 0 2 3 0 31 43 33 43 60 73 80 67 82 93 81 76 108 111 87 112 102
0 0 0 0 0 0 0 0 0 0 0 0 0 0 0 0 0 0 1 17 7 19 31 32 15 29 47 66 60 72 89 99 102 100 103 79 32 27
0 0 0 0 0 0 0 0 0 0 0 6 0 0 0 0 0 0 1 0 0 2 13 30 49 58 71 70 74 70 91 29 34 20 36 28 44 70
0 0 0 0 0 0 0 0 0 2 3 3 12 1 0 0 0 5 0 0 0 1 4 31 46 20 54 57 44 58 39 43 46 59 56 30 55 33
0 0 0 4 34 10 5 1 4 4 3 33 0 0 15 8 0 0 0 0 0 0 2 0 1 0 0 2 11 22 47 86 53 66 72 46 22 11
0 0 0 3 1 23 28 46 41 35 44 32 31 8 2 1 0 0 0 0 10 0 0 0 0 0 0 14 21 73 61 39 42 54 44 47 12 13
0 0 0 2 1 0 11 59 77 92 51 5 0 0 14 21 0 14 26 34 4 1 3 11 5 3 1 4 24 29 52 56 24 42 47 43 24 22
0 0 0 0 0 26 26 32 8 0 0 0 7 25 30 21 19 16 5 0 1 7 11 25 0 0 0 21 38 20 35 49 96 68 35 42 28 22
0 0 3 13 41 71 42 25 0 0 0 10 84 80 34 31 29 7 0 13 4 6 3 6 0 2 1 1 0 36 74 16 9 16 18 15 11 9
0 1 32 41 56 82 21 9 0 0 1 7 0 0 0 0 26 15 14 12 5 3 0 0 0 2 5 0 0 0 0 23 18 13 13 11 12 1
3 1 3 41 112 76 61 1 4 27 9 0 0 0 0 2 13 7 6 2 0 0 0 3 0 0 1 0 0 0 0 0 0 0 11 24 15 5
13 4 1 87 66 41 19 41 47 30 0 0 0 3 4 0 0 0 0 0 0 1 0 0 0 0 0 0 0 0 0 0 0 0 0 4 7 12
16 28 109 55 26 3 12 28 23 0 0 1 11 2 2 0 0 0 0 0 0 0 0 0 8 0 0 0 0 0 1 0 0 0 0 0 0 0
27 13 2 3 4 7 3 0 0 0 1 8 9 3 0 0 0 0 0 0 0 0 0 0 0 0 0 0 0 0 0 0 0 0 0 0 0 0
49 0 0 0 0 0 0 0 0 2 12 8 3 1 2 0 0 0 0 0 2 1 0 0 0 0 0 0 0 0 0 0 0 0 0 0 0 0
0 0 0 0 0 2 4 2 2 9 4 2 0 0 0 0 0 0 0 0 0 0 0 0 0 0 0 0 2 0 0 0 0 0 0 0 0 0
0 0 2 2 4 2 1 1 1 1 0 0 0 0 0 0 0 0 0 0 0 0 0 0 0 0 0 0 0 11 0 0 0 0 0 0 0 0
0 1 4 3 2 1 1 0 0 0 0 0 0 0 0 0 0 0 0 0 0 0 0 0 0 0 0 0 0 0 3 0 0 0 0 0 0 15
2 4 1 1 0 1 1 0 0 0 0 0 0 0 0 0 0 0 0 8 5 0 0 0 0 7 0 0 0 0 0 6 4 0 0 0 0 0
7 1 2 1 1 0 0 0 0 0 0 0 0 0 0 0 0 0 0 0 0 0 0 0 0 0 0 0 0 0 0 0 3 9 3 0 0 0
0 3 2 1 0 0 0 0 0 0 0 0 0 0 0 0 0 0 0 0 0 0 0 0 0 0 0 0 0 0 0 0 0 0 0 2 4 4